Regional Weather Roundup
Issued by NWS

Home | Current Version | Previous Version | Graphics & Text | Print | Product List | Glossary On
Versions: 1 2 3 4 5 6 7 8 9 10 11 12 13 14 15 16 17 18 19 20 21 22 23 24 25 26 27 28 29 30 31 32 33 34 35 36 37 38 39 40 41 42 43 44 45 46 47 48 49 50
000
ASUS43 KLMK 272002
RWRKY
KENTUCKY REGIONAL WEATHER ROUNDUP
NATIONAL WEATHER SERVICE LOUISVILLE KY
300 PM EST SAT DEC 27 2014

NOTE "FAIR" INDICATES FEW OR NO CLOUDS BELOW 12,000 FEET
WITH NO SIGNIFICANT WEATHER AND/OR OBSTRUCTIONS TO VISIBILITY.

KYZ001>023-026-027-061>063-070>075-272100-
WESTERN AND SOUTH CENTRAL KENTUCKY

CITY           SKY/WX    TMP DP  RH WIND       PRES   REMARKS
PADUCAH        LGT RAIN  50  49  96 SW5       30.10S FOG
HENDERSON      CLOUDY    48  45  87 SW9       30.11R
OWENSBORO      LGT RAIN  49  48  96 S12       30.12F
HOPKINSVILLE   LGT RAIN  50  48  95 S2        30.11F
BOWLING GREEN  LGT RAIN  52  47  83 CALM      30.12F
GLASGOW        NOT AVBL
$$

KYZ024-025-028>034-038-045-046-053-272100-
NORTH CENTRAL KENTUCKY

CITY           SKY/WX    TMP DP  RH WIND       PRES   REMARKS
LOUISVILLE/SDF CLOUDY    53  44  71 SW8       30.11F
LOUISVILLE/LOU CLOUDY    52  44  74 SW8       30.11F
FORT KNOX      CLOUDY    51  44  79 S10       30.10F
$$

KYZ035>037-039>044-047>052-055>060-089>105-272100-
NORTHEAST KENTUCKY

CITY           SKY/WX    TMP DP  RH WIND       PRES   REMARKS
LEXINGTON      CLOUDY    51  43  74 SW9       30.13F
COVINGTON      CLOUDY    49  42  77 S9        30.10F
FRANKFORT      CLOUDY    52  44  74 S6        30.11F
$$

KYZ054-064>069-076>088-106>120-272100-
SOUTHEAST KENTUCKY

CITY           SKY/WX    TMP DP  RH WIND       PRES   REMARKS
JACKSON        CLOUDY    60  29  30 MISG      30.16S
LONDON         CLOUDY    60  26  27 CALM      30.14F
SOMERSET       NOT AVBL
MIDDLESBORO    NOT AVBL
MONTICELLO     CLOUDY    63  38  39 CALM      30.16F
$$



USA.gov is the U.S. government's official web portal to all federal, state and local government web resources and services.